Weather Roundup
Issued by NWS Springfield, MO

Home | Current Version | Previous Version | Text Only | Print | Product List | Glossary On
Versions: 1 2 3 4 5 6 7 8 9 10 11 12 13 14 15 16 17 18 19 20 21 22 23 24 25 26 27 28 29 30 31 32 33 34 35 36 37 38 39 40 41 42 43 44 45 46 47 48 49 50
000
NZUS99 KSGF 132357
HRRSGF

HOURLY WEATHER
NATIONAL WEATHER SERVICE SPRINGFIELD MO
600 PM CST WED DEC 13 2017

......SGF CWA......

CITY           SKY/WX    TMP DP  RH WIND       PRES   REMARKS
SPRINGFIELD    CLEAR     52  27  38 W7        29.79R
6HR MIN TEMP:  52; 6HR MAX TEMP:  58;

JOPLIN         CLEAR     52  28  39 W7        29.84R
6HR MIN TEMP:  51; 6HR MAX TEMP:  62;

WEST PLAINS    CLEAR     50  25  37 W7        29.77R
6HR MIN TEMP:  50; 6HR MAX TEMP:  61;

ROLLA          CLEAR     51  29  42 NW13G23   29.74R
6HR MIN TEMP:  51; 6HR MAX TEMP:  58;

BRANSON        CLEAR     52  25  35 W3        29.81S

......SURROUNDING SGF CWA......

CITY           SKY/WX    TMP DP  RH WIND       PRES   REMARKS
CHANUTE        CLEAR     50  25  37 NW8       29.86R
PARSONS        CLEAR     49  26  41 N8        29.86R
COFFEYVILLE    CLEAR     50  26  39 NW9       29.85R
EMPORIA        CLEAR     47  24  40 NW7       29.87R
HARRISON AR    CLEAR     52  25  35 W7        29.82R

......KANSAS AND MISSOURI......

CITY           SKY/WX    TMP DP  RH WIND       PRES   REMARKS
KANSAS CTY INT CLEAR     47  28  47 NW9       29.82R
SEDALIA        CLEAR     51  28  41 NW14      29.79R
ST JOSEPH      CLEAR     47  30  51 NW15      29.84R
ST LOUIS       CLEAR     51  30  44 NW20G26   29.67R
WICHITA        PTCLDY    57  24  28 N12       29.89R
TOPEKA         CLEAR     49  28  44 NW9       29.85R
OLATHE         CLEAR     50  27  40 NW13      29.82R

......TENNESSEE......

CITY           SKY/WX    TMP DP  RH WIND       PRES   REMARKS
MEMPHIS        NOT AVBL
NASHVILLE      PTCLDY    48  18  30 SW7       29.76R

......ARKANSAS.......

CITY           SKY/WX    TMP DP  RH WIND       PRES   REMARKS
FAYETTEVILLE   CLEAR     43  26  51 S6        29.86R
FT SMITH       CLEAR     49  26  41 W8        29.86R
LITTLE ROCK    PTCLDY    57  25  29 W7        29.83R

......OKLAHOMA.......

CITY           SKY/WX    TMP DP  RH WIND       PRES   REMARKS
TULSA          PTCLDY    54  23  30 W8        29.86S
PONCA CITY     CLEAR     49  23  36 N5        29.88R
MCALESTER      PTCLDY    51  30  44 CALM      29.87S
OKLAHOMA CITY  MOCLDY    55  18  23 N6        29.90R

......IOWA............

CITY           SKY/WX    TMP DP  RH WIND       PRES   REMARKS
DES MOINES     NOT AVBL
QUAD CITIES    CLOUDY    36  26  67 NW28G40   29.63R WCI  23

......ILLINOIS........

CITY           SKY/WX    TMP DP  RH WIND       PRES   REMARKS
QUINCY         NOT AVBL
CHICAGO        CLOUDY    31  20  63 NW28G39   29.44R WCI  17



USA.gov is the U.S. government's official web portal to all federal, state and local government web resources and services.